User: anonymous   Login
Location: Lisboa
(38.7223°N, 9.1393°W)
Time: 18:35:32
(UTC+01:00)
Language:

AAUSAT CUBESAT 2 - Orbit

View from above orbital plane
View from above orbital plane
View from above satellite
View from above satellite

Ground track
Ground track

The orbit data is extracted from the following two-line orbital elements,

1 32788U 08021F   24146.48534051  .00021104  00000-0  10828-2 0  9995
2 32788  97.5943 126.6772 0003352 225.4411 134.6548 15.16552168874886
Epoch (UTC): 25 May 2024 11:38:53
Eccentricity: 0.0003352
inclination: 97.5943°
perigee height: 514 km
apogee height: 518 km
right ascension of ascending node: 126.6772°
argument of perigee: 225.4411°
revolutions per day: 15.16552168
mean anomaly at epoch: 134.6548°
orbit number at epoch: 87488

The dashed part of the orbit path shows where the satellite is in the earth's shadow,  

DLR